[[{"header":{"parameterUnit":"m.s-1","parameterCategory":2,"la1":30.2991,"la2":30.254,"lo1":-89.0895,"lo2":-89.0444,"dy":0.0017,"dx":0.0017,"nx":28,"ny":28,"refTime":"2024-05-24T21:00:00:Z","depth":"0","parameterNumber":2,"parameterNumberName":"U-component_of_CURRENTS"},"data":[0,0,0,0,0,0,0,0,0,0,0,0,0,0,0,0,0,0,0,0,0,0,0,0,0,0,0,0,0,0,0,0,0,0,0,0,0,0,0,0,0,0,0,0,0,0,0,0,0,0,0,0,0,0,0,0,0,0,0.3668,0.3669,0,0.3709,0.3709,0.3709,0.3701,0.3701,0.37,0.37,0.3715,0.3716,0.3717,0,0,0,0,0,0,0,0,0,0,0,0,0,0.3609,0.3609,0.3668,0.3669,0.367,0.3709,0.3709,0.3709,0.3701,0.3701,0.37,0.3699,0.3715,0.3716,0.3717,0,0,0,0,0,0,0,0,0,0,0,0,0,0.3637,0.3609,0.3668,0.3672,0.3674,0.3709,0.3709,0.371,0.3701,0.3701,0.37,0.3699,0.3714,0.3716,0.3717,0.3738,0,0,0.3721,0.3721,0,0,0,0,0,0,0,0,0.3636,0.3639,0.3671,0.3672,0.3674,0.3702,0.3694,0.3719,0.3701,0.3687,0.37,0.3699,0.3711,0.3712,0.3717,0.3739,0.374,0.3721,0.3722,0.3722,0.3722,0,0,0,0,0,0,0,0.3634,0.3638,0.3681,0.3672,0.3674,0.3682,0.3684,0.3699,0.3699,0.3688,0.3689,0.3699,0.3711,0.3716,0.3718,0.374,0.3721,0.3722,0.3723,0.3723,0.386,0.3862,0,0,0,0,0,0,0.3635,0.3636,0.368,0.3682,0.3656,0.3684,0.3686,0.3691,0.37,0.3702,0.3699,0.3698,0.3714,0.3716,0.3718,0.3801,0.3722,0.3723,0.3724,0.3857,0.386,0.3863,0,0,0,0,0,0,0.3633,0.3638,0.3678,0.3663,0.3669,0.3685,0.3691,0.3692,0.3704,0.3709,0.3709,0.3711,0.3714,0.3716,0.3753,0.3799,0.3724,0.3725,0.3853,0.3858,0.3862,0.3931,0,0,0,0,0,0,0.3631,0.3637,0.3641,0.3663,0.367,0.3719,0.3692,0.3694,0.3713,0.3712,0.3719,0.3719,0.3714,0.3751,0.3754,0.38,0.3726,0.385,0.3855,0.386,0.3925,0.3937,0.3947,0,0,0,0,0,0.3629,0.3643,0.3641,0.3646,0.3674,0.3721,0.3726,0.3732,0.3714,0.3736,0.3741,0.3719,0.3788,0.3754,0.3757,0.3804,0.3847,0.3854,0.386,0.392,0.3935,0.3947,0,0,0,0,0,0,0.3619,0.3644,0.3642,0.3662,0.3697,0.3721,0.374,0.374,0.376,0.3755,0.3746,0.3749,0.3805,0.3798,0.3761,0.3864,0.3819,0.3826,0.3863,0.3877,0.3888,0.3906,0.3727,0,0,0,0,0,0.3619,0.3635,0.3666,0.3685,0.3702,0.372,0.3737,0.3746,0.3767,0.3774,0.3778,0.3796,0.3835,0.3848,0.3875,0.392,0.3946,0.3958,0.3969,0.3978,0.3999,0.4085,0.4106,0.3885,0.3884,0.3884,0,0,0.3618,0.3637,0.3644,0.3684,0.3705,0.3747,0.3729,0.3766,0.3805,0.3773,0.3819,0.3833,0.3858,0.3917,0.3942,0.3914,0.4057,0.3987,0.3994,0.401,0.4094,0.4116,0.4135,0.3889,0.3888,0.3887,0,0,0.3637,0.3646,0.3669,0.3705,0.3749,0.377,0.3785,0.3818,0.3838,0.3882,0.3886,0.3931,0.396,0.4004,0.4026,0.4118,0.4117,0.4125,0.419,0.4273,0.4292,0.4309,0.4371,0.4393,0.4126,0.4126,0.4126,0,0.3636,0.3669,0.3687,0.3729,0.3764,0.3784,0.3829,0.3864,0.3905,0.3941,0.3906,0.4002,0.401,0.4116,0.4148,0.4144,0.4182,0.4129,0.4287,0.4304,0.432,0.438,0.4403,0.413,0.4129,0.4129,0.4129,0,0.3679,0.371,0.3734,0.379,0.3831,0.3878,0.393,0.3976,0.3988,0.402,0.4111,0.4129,0.4193,0.4205,0.4198,0.433,0.4318,0.4292,0.4247,0.4347,0.4403,0.4426,0.4136,0.4134,0.4133,0.4132,0,0,0.3674,0.3746,0.3756,0.3801,0.3868,0.3918,0.3992,0.408,0.4159,0.4178,0.4281,0.4329,0.434,0.437,0.438,0.4441,0.4576,0.4416,0.4418,0.4468,0.4759,0.4692,0.471,0.4576,0.4581,0.4584,0.4753,0,0.3706,0.3787,0.3813,0.3909,0.3965,0.4015,0.4094,0.4176,0.4239,0.4348,0.4383,0.4478,0.4407,0.4456,0.4507,0.4582,0.464,0.4533,0.4664,0.4669,0.4589,0.4736,0.4576,0.4708,0.4775,0.4778,0.4781,0,0.3751,0.3802,0.3883,0.3996,0.4026,0.4085,0.4235,0.4309,0.4454,0.4505,0.4588,0.4628,0.4745,0.466,0.4807,0.4744,0.4762,0.4784,0.4791,0.4723,0.4645,0.4622,0.4746,0.4657,0.4816,0.4813,0.4811,0,0.3768,0.3865,0.3932,0.3969,0.4087,0.4147,0.4219,0.4358,0.4451,0.4626,0.4716,0.4826,0.4915,0.4959,0.4984,0.4924,0.5134,0.5057,0.5006,0.5,0.4889,0.4865,0.4933,0.5158,0.5158,0.5158,0.5157,0,0.3807,0.3869,0.3951,0.3995,0.41,0.4182,0.4313,0.441,0.4576,0.4699,0.48,0.4917,0.4996,0.5102,0.5085,0.5134,0.5217,0.5064,0.5061,0.4907,0.4884,0.4816,0.4761,0.5164,0.5163,0.5161,0.516,0,0.3814,0.3865,0.3956,0.4072,0.4107,0.4189,0.4334,0.4438,0.4605,0.4779,0.4844,0.5044,0.5185,0.5241,0.5354,0.5278,0.5185,0.5299,0.5103,0.5073,0.4898,0.4852,0.4717,0.4578,0.529,0.5289,0.5289,0,0.3819,0.3865,0.3979,0.4023,0.4069,0.4183,0.4252,0.4422,0.4533,0.4826,0.4911,0.5136,0.5238,0.54,0.5353,0.5364,0.5191,0.5197,0.5041,0.4915,0.4863,0.4629,0.4504,0.4926,0.4923,0.4921,0.4918,0,0.3825,0.3865,0.3927,0.4011,0.4086,0.4153,0.4274,0.4361,0.4571,0.4724,0.4931,0.5054,0.5244,0.5208,0.5249,0.5212,0.4966,0.514,0.5078,0.4659,0.4344,0.4198,0.4781,0.4895,0.4897,0.4899,0.49,0.4901,0.3815,0.3848,0.3926,0.3995,0.4065,0.4104,0.4112,0.4238,0.4369,0.4521,0.4764,0.4848,0.5006,0.5047,0.5004,0.487,0.4791,0.4716,0.4698,0.4492,0.4265,0.4789,0.4846,0.4848,0.485,0.4851,0.4853,0,0.3794,0.3832,0.3898,0.3956,0.3973,0.4033,0.4102,0.406,0.4105,0.4279,0.4392,0.4528,0.4533,0.4629,0.4633,0.4479,0.4216,0.4355,0.4016,0.3935,0.4495,0.4388,0.4264,0.4264,0.4264,0.4264,0.4264,0.4264,0.3792,0.3828,0.3851,0.3849,0.3865,0.3783,0.3771,0.3719,0.3772,0.3779,0.3833,0.3958,0.4297,0.4429,0.4342,0.422,0.3907,0.3697,0.3677,0.413,0.4161,0.4191,0.4079,0.3893,0.3892,0.2938,0.2931,0.2926]},{"header":{"parameterUnit":"m.s-1","parameterCategory":2,"la1":30.2991,"la2":30.254,"lo1":-89.0895,"lo2":-89.0444,"dy":0.0017,"dx":0.0017,"nx":28,"ny":28,"refTime":"2024-05-24T21:00:00:Z","depth":"0","parameterNumber":3,"parameterNumberName":"V-component_of_CURRENTS"},"data":[0,0,0,0,0,0,0,0,0,0,0,0,0,0,0,0,0,0,0,0,0,0,0,0,0,0,0,0,0,0,0,0,0,0,0,0,0,0,0,0,0,0,0,0,0,0,0,0,0,0,0,0,0,0,0,0,0,0,0.0275,0.0274,0,0.0209,0.0209,0.0208,0.0163,0.0162,0.0162,0.0162,0.0053,0.0051,0.0048,0,0,0,0,0,0,0,0,0,0,0,0,0,0.0292,0.0292,0.0275,0.0274,0.0274,0.021,0.0209,0.0208,0.0163,0.0162,0.0162,0.0162,0.0054,0.0051,0.0048,0,0,0,0,0,0,0,0,0,0,0,0,0,0.026,0.0292,0.0275,0.0244,0.0241,0.021,0.0208,0.0207,0.0163,0.0162,0.0162,0.0162,0.0055,0.0051,0.0048,0.003,0,0,0.0035,0.0034,0,0,0,0,0,0,0,0,0.0262,0.026,0.0249,0.0246,0.0242,0.0195,0.0175,0.0146,0.0163,0.0191,0.0162,0.0161,0.0098,0.009,0.0078,0.0025,0.002,0.0035,0.0033,0.0031,0.003,0,0,0,0,0,0,0,0.0264,0.0262,0.0248,0.0249,0.0244,0.021,0.0205,0.0169,0.0146,0.0189,0.0186,0.018,0.0095,0.0082,0.0075,0.0019,0.0035,0.0032,0.0029,0.0027,-0.0028,-0.0027,0,0,0,0,0,0,0.0279,0.0264,0.025,0.0246,0.0253,0.021,0.0205,0.021,0.0147,0.0138,0.018,0.0178,0.0089,0.0079,0.0071,0.008,0.0031,0.0027,0.0025,-0.0029,-0.0028,-0.0027,0,0,0,0,0,0,0.028,0.0279,0.0253,0.0254,0.0248,0.0211,0.0216,0.0208,0.02,0.0141,0.0131,0.018,0.0088,0.0076,0.0053,0.0074,0.0025,0.0022,-0.003,-0.0028,-0.0027,0.0077,0,0,0,0,0,0,0.0281,0.028,0.0286,0.0255,0.0249,0.0251,0.0216,0.0207,0.0197,0.0194,0.0137,0.0127,0.0087,0.0059,0.0049,0.0068,0.0019,-0.0031,-0.0029,-0.0028,0.0072,0.0082,0.009,0,0,0,0,0,0.0282,0.0298,0.0287,0.0285,0.026,0.0252,0.0246,0.0216,0.0198,0.0205,0.0167,0.0129,0.0063,0.0057,0.0044,0.0063,-0.0032,-0.003,-0.0028,0.0069,0.008,0.009,0,0,0,0,0,0,0.0306,0.0294,0.0281,0.0293,0.0279,0.0245,0.0247,0.0224,0.0199,0.0196,0.0137,0.0124,0.0109,0.0073,0.0068,0.0052,0.001,0.001,0.0088,0.0098,0.0107,0.0136,0.0015,0,0,0,0,0,0.0316,0.0329,0.0307,0.0317,0.0315,0.0282,0.0273,0.0257,0.023,0.0218,0.0177,0.0137,0.0107,0.0094,0.0056,0.0049,0.0011,0.0054,0.0063,0.007,0.0086,0.0048,0.0055,-0.002,-0.002,-0.002,0,0,0.0326,0.0323,0.0329,0.0324,0.031,0.0322,0.0276,0.0277,0.0289,0.021,0.021,0.0161,0.011,0.0102,0.0093,0.0077,0.007,0.0073,0.008,0.0092,0.0051,0.0058,0.0064,-0.0018,-0.0019,-0.0019,0,0,0.0367,0.0356,0.0384,0.038,0.0373,0.0356,0.0362,0.0334,0.0326,0.0314,0.0265,0.0235,0.0183,0.016,0.014,0.0175,0.0113,0.016,0.0234,0.0197,0.0203,0.0208,0.0167,0.0167,0.0172,0.0172,0.0172,0,0.0378,0.0415,0.039,0.0416,0.0424,0.0379,0.0413,0.0398,0.0366,0.0372,0.0329,0.0268,0.0214,0.0222,0.0229,0.0196,0.0162,0.02,0.0209,0.0213,0.0216,0.0173,0.0172,0.0177,0.0176,0.0176,0.0175,0,0.044,0.0469,0.0487,0.051,0.0512,0.0535,0.0515,0.0519,0.0491,0.0471,0.046,0.0385,0.0353,0.0329,0.0284,0.0293,0.0256,0.022,0.0186,0.023,0.0182,0.0179,0.0185,0.0183,0.0181,0.018,0,0,0.0475,0.0524,0.0531,0.0574,0.0568,0.059,0.061,0.0629,0.0672,0.0602,0.0643,0.0559,0.0511,0.0485,0.0425,0.039,0.0367,0.0322,0.0318,0.0289,0.0283,0.0249,0.0242,0.0331,0.0331,0.0331,0.024,0,0.0537,0.0623,0.062,0.0704,0.0751,0.0727,0.0764,0.0769,0.0756,0.078,0.0697,0.0703,0.0575,0.0577,0.051,0.0418,0.0364,0.0395,0.0239,0.0235,0.0205,0.024,0.0264,0.0185,0.0237,0.0236,0.0236,0,0.0604,0.0659,0.0756,0.0841,0.086,0.09,0.097,0.0999,0.1003,0.0994,0.0954,0.0888,0.0831,0.0719,0.0549,0.0575,0.0434,0.0341,0.0335,0.0268,0.0196,0.0148,0.0177,-0.0033,0.0231,0.0231,0.0231,0,0.0673,0.076,0.0853,0.0876,0.095,0.1004,0.1044,0.107,0.1136,0.1145,0.1191,0.1071,0.1056,0.0858,0.0631,0.0597,0.0446,0.0373,0.0203,0.0198,0.0172,0.0166,-0.0012,0.0244,0.0245,0.0245,0.0245,0,0.0753,0.0831,0.0906,0.0963,0.1099,0.1107,0.1245,0.1269,0.1331,0.1444,0.1317,0.1377,0.1091,0.0962,0.0709,0.0458,0.0492,0.0228,0.018,0.0208,0.0206,-0.0017,-0.0141,0.0241,0.0242,0.0243,0.0243,0,0.0828,0.0868,0.0994,0.1097,0.1145,0.1246,0.1393,0.1491,0.1533,0.168,0.17,0.162,0.1453,0.1147,0.0853,0.0597,0.0215,0.0238,0.0289,0.0248,-0.0121,-0.0238,-0.0481,-0.058,0.0037,0.0036,0.0035,0,0.0876,0.095,0.1101,0.119,0.1252,0.1398,0.1508,0.1589,0.1706,0.1845,0.1933,0.1833,0.1778,0.1321,0.0861,0.0421,0.0188,0.0154,0.008,-0.0125,-0.0292,-0.0388,-0.046,0.008,0.0079,0.0079,0.0078,0,0.0977,0.1029,0.1134,0.1315,0.1454,0.1617,0.1784,0.1911,0.2036,0.2169,0.231,0.2287,0.1866,0.1441,0.0838,0.0522,0.0013,0.0129,-0.0092,-0.0275,-0.0381,-0.0502,0.0115,0.0074,0.0074,0.0075,0.0075,0.0075,0.1052,0.1144,0.128,0.1453,0.1619,0.1824,0.1973,0.2158,0.2379,0.2581,0.2552,0.2555,0.1977,0.1157,0.0717,-0.003,-0.0058,-0.0267,-0.0393,-0.0471,-0.0567,0.004,-0.0051,-0.0052,-0.0052,-0.0052,-0.0052,0,0.1137,0.1243,0.1406,0.1619,0.1805,0.1878,0.2148,0.2306,0.2579,0.2736,0.2827,0.2553,0.1828,0.1106,0.0106,-0.0438,-0.0633,-0.0728,-0.0857,-0.0908,-0.037,-0.0366,-0.0517,-0.0516,-0.0516,-0.0516,-0.0516,-0.0516,0.1191,0.1346,0.1427,0.1734,0.1891,0.2145,0.2305,0.2544,0.2714,0.2904,0.2912,0.2864,0.237,0.0589,-0.0617,-0.091,-0.125,-0.1354,-0.1534,-0.1166,-0.1132,-0.11,-0.1126,-0.1433,-0.1434,-0.1994,-0.1999,-0.2004]}],[{"header":{"parameterUnit":"m.s-1","parameterCategory":2,"la1":30.2991,"la2":30.254,"lo1":-89.0895,"lo2":-89.0444,"dy":0.0017,"dx":0.0017,"nx":28,"ny":28,"refTime":"2024-05-24T21:00:00:Z","depth":"2","parameterNumber":2,"parameterNumberName":"U-component_of_CURRENTS"},"data":[0,0,0,0,0,0,0,0,0,0,0,0,0,0,0,0,0,0,0,0,0,0,0,0,0,0,0,0,0,0,0,0,0,0,0,0,0,0,0,0,0,0,0,0,0,0,0,0,0,0,0,0,0,0,0,0,0,0,0.3402,0.3403,0,0.3442,0.3442,0.3443,0.3446,0.3446,0.3446,0.3446,0.3471,0.3472,0.3472,0,0,0,0,0,0,0,0,0,0,0,0,0,0.3345,0.3346,0.3402,0.3403,0.3404,0.3442,0.3442,0.3443,0.3446,0.3446,0.3446,0.3446,0.347,0.3471,0.3472,0,0,0,0,0,0,0,0,0,0,0,0,0,0.3373,0.3346,0.3402,0.3413,0.3414,0.3442,0.3442,0.3443,0.3446,0.3446,0.3446,0.3446,0.347,0.3471,0.3472,0.3484,0,0,0.3476,0.3477,0,0,0,0,0,0,0,0,0.3371,0.3375,0.341,0.3412,0.3414,0.3442,0.3432,0.3457,0.3446,0.3431,0.3446,0.3446,0.3462,0.3464,0.3467,0.3485,0.3486,0.3476,0.3477,0.3477,0.3478,0,0,0,0,0,0,0,0.3369,0.3373,0.3415,0.3411,0.3413,0.3421,0.3424,0.3436,0.3444,0.3432,0.3433,0.3443,0.3462,0.3466,0.3468,0.3486,0.3476,0.3477,0.3478,0.3478,0.3606,0.3608,0,0,0,0,0,0,0.337,0.3371,0.3414,0.3416,0.3395,0.3422,0.3426,0.343,0.3445,0.3448,0.3443,0.3443,0.3464,0.3467,0.3469,0.3553,0.3477,0.3479,0.3479,0.3603,0.3606,0.3609,0,0,0,0,0,0,0.3369,0.3374,0.3412,0.3397,0.3403,0.3424,0.3429,0.3431,0.3449,0.3453,0.3455,0.346,0.3464,0.3467,0.3505,0.3551,0.3479,0.348,0.36,0.3604,0.3608,0.3676,0,0,0,0,0,0,0.3367,0.3373,0.3379,0.3397,0.3404,0.345,0.3429,0.3432,0.3456,0.3457,0.3469,0.347,0.3464,0.3503,0.3506,0.3551,0.3481,0.3597,0.3602,0.3607,0.367,0.3682,0.3692,0,0,0,0,0,0.3365,0.3377,0.3379,0.3384,0.3411,0.3452,0.3457,0.3468,0.3457,0.348,0.3488,0.347,0.3538,0.3506,0.3509,0.3556,0.3594,0.36,0.3606,0.3666,0.368,0.3691,0,0,0,0,0,0,0.3356,0.338,0.3382,0.34,0.3434,0.3454,0.3474,0.3478,0.3501,0.35,0.3494,0.3498,0.3554,0.3547,0.3513,0.3611,0.3568,0.3574,0.3612,0.3625,0.3635,0.3652,0.3482,0,0,0,0,0,0.3357,0.3373,0.3402,0.3421,0.3438,0.3457,0.3474,0.3486,0.3507,0.3516,0.3524,0.3544,0.3579,0.3594,0.3619,0.3662,0.3682,0.37,0.3711,0.3719,0.3738,0.3814,0.3833,0.3629,0.3629,0.3629,0,0,0.3357,0.3375,0.3383,0.3421,0.3442,0.3479,0.3467,0.3505,0.3541,0.3516,0.3564,0.358,0.3601,0.3658,0.3683,0.3657,0.379,0.3727,0.3734,0.3748,0.3822,0.3842,0.3859,0.3633,0.3632,0.3632,0,0,0.3372,0.3386,0.3407,0.3441,0.3485,0.3504,0.352,0.3554,0.3577,0.362,0.3626,0.3673,0.3703,0.3742,0.3762,0.3848,0.3846,0.3857,0.3919,0.3993,0.401,0.4025,0.4077,0.4096,0.3859,0.3859,0.3859,0,0.3374,0.3401,0.3423,0.346,0.3492,0.3519,0.3558,0.3593,0.3635,0.3671,0.3646,0.3739,0.3749,0.3844,0.3876,0.3873,0.3906,0.3862,0.4006,0.4022,0.4036,0.4085,0.4106,0.3863,0.3863,0.3862,0.3862,0,0.3406,0.3436,0.3458,0.351,0.355,0.3593,0.3645,0.369,0.371,0.3744,0.3834,0.3854,0.3916,0.393,0.3925,0.4047,0.4035,0.4011,0.3969,0.4061,0.4106,0.4126,0.3869,0.3868,0.3866,0.3865,0,0,0.3395,0.3463,0.3474,0.3506,0.3581,0.3618,0.3696,0.3778,0.3844,0.3881,0.3973,0.403,0.405,0.4077,0.409,0.4147,0.427,0.4127,0.4129,0.4169,0.4431,0.4361,0.4375,0.4273,0.4277,0.428,0.442,0,0.3418,0.3481,0.3516,0.359,0.3631,0.3691,0.3768,0.3849,0.3912,0.401,0.4061,0.4147,0.4107,0.4151,0.4207,0.4271,0.4328,0.4234,0.4344,0.4347,0.4266,0.4398,0.4041,0.4131,0.444,0.4443,0.4445,0,0.344,0.3483,0.3546,0.364,0.3667,0.3725,0.3857,0.393,0.4075,0.4127,0.422,0.4265,0.4385,0.4321,0.4467,0.4413,0.4436,0.4456,0.4462,0.4388,0.4315,0.4091,0.4155,0.4478,0.4476,0.4473,0.4471,0,0.3423,0.3507,0.3554,0.3586,0.3696,0.3756,0.3834,0.3973,0.4062,0.4224,0.4305,0.4424,0.4513,0.4567,0.4608,0.4561,0.4748,0.4685,0.4637,0.4631,0.4345,0.4308,0.4784,0.4783,0.4783,0.4783,0.4782,0,0.3433,0.3477,0.3554,0.3589,0.3677,0.3763,0.3885,0.3984,0.415,0.4265,0.4374,0.4478,0.4582,0.4685,0.4686,0.4741,0.4816,0.4688,0.4682,0.4359,0.4323,0.4629,0.4609,0.4788,0.4787,0.4786,0.4785,0,0.3405,0.3454,0.3516,0.3627,0.367,0.3739,0.3909,0.3995,0.4163,0.4324,0.4387,0.458,0.4713,0.4787,0.49,0.4851,0.4894,0.4877,0.4486,0.4433,0.4704,0.4686,0.4863,0.4862,0.4862,0.4861,0.4861,0,0.3385,0.3409,0.352,0.3562,0.3616,0.3728,0.3805,0.3983,0.4076,0.4357,0.4425,0.464,0.4724,0.4883,0.4853,0.4873,0.492,0.4541,0.4387,0.4746,0.4723,0.4706,0.469,0.403,0.4023,0.4017,0.4012,0,0.3349,0.3389,0.3445,0.3524,0.3601,0.3674,0.3804,0.3861,0.4068,0.4208,0.4378,0.4484,0.467,0.4545,0.4609,0.4553,0.4512,0.4424,0.4928,0.407,0.3973,0.3946,0.3955,0.3959,0.3965,0.3968,0.3971,0.3973,0.3321,0.3338,0.3409,0.3469,0.354,0.3572,0.3583,0.3695,0.3797,0.3929,0.4161,0.4204,0.4288,0.4207,0.4086,0.4002,0.43,0.4087,0.4099,0.412,0.4003,0.3911,0.3863,0.3867,0.3871,0.3875,0.3878,0,0.3251,0.33,0.3346,0.3395,0.3388,0.3481,0.3534,0.3478,0.3476,0.3658,0.3765,0.3545,0.3504,0.3575,0.3382,0.3395,0.3295,0.3243,0.3073,0.3133,0.3184,0.3012,0.2612,0.2608,0.2603,0.2599,0,0,0.3232,0.3238,0.3239,0.3212,0.3234,0.3165,0.3141,0.308,0.3124,0.3071,0.3097,0.3382,0.3517,0.303,0.2973,0.2756,0.2905,0.2646,0.3678,0.3541,0.3585,0.371,0.3519,0,0,0,0,0]},{"header":{"parameterUnit":"m.s-1","parameterCategory":2,"la1":30.2991,"la2":30.254,"lo1":-89.0895,"lo2":-89.0444,"dy":0.0017,"dx":0.0017,"nx":28,"ny":28,"refTime":"2024-05-24T21:00:00:Z","depth":"2","parameterNumber":3,"parameterNumberName":"V-component_of_CURRENTS"},"data":[0,0,0,0,0,0,0,0,0,0,0,0,0,0,0,0,0,0,0,0,0,0,0,0,0,0,0,0,0,0,0,0,0,0,0,0,0,0,0,0,0,0,0,0,0,0,0,0,0,0,0,0,0,0,0,0,0,0,0.0158,0.0157,0,0.0097,0.0096,0.0095,0.0054,0.0054,0.0054,0.0054,-0.0047,-0.0049,-0.0052,0,0,0,0,0,0,0,0,0,0,0,0,0,0.0172,0.0173,0.0158,0.0157,0.0156,0.0097,0.0096,0.0095,0.0055,0.0054,0.0054,0.0054,-0.0046,-0.0049,-0.0052,0,0,0,0,0,0,0,0,0,0,0,0,0,0.0144,0.0173,0.0158,0.0129,0.0126,0.0097,0.0096,0.0095,0.0055,0.0054,0.0054,0.0054,-0.0045,-0.0049,-0.0052,-0.0069,0,0,-0.0064,-0.0065,0,0,0,0,0,0,0,0,0.0145,0.0143,0.0134,0.0131,0.0128,0.0084,0.0064,0.0038,0.0055,0.0081,0.0054,0.0054,-0.0006,-0.0013,-0.0025,-0.0074,-0.0078,-0.0064,-0.0066,-0.0068,-0.0069,0,0,0,0,0,0,0,0.0147,0.0145,0.0133,0.0134,0.013,0.0097,0.0093,0.0059,0.0038,0.0079,0.0076,0.007,-0.0008,-0.0021,-0.0027,-0.008,-0.0064,-0.0067,-0.007,-0.0071,-0.0122,-0.0121,0,0,0,0,0,0,0.0161,0.0147,0.0134,0.0131,0.0137,0.0098,0.0093,0.0097,0.004,0.0031,0.0071,0.0069,-0.0014,-0.0023,-0.0031,-0.002,-0.0068,-0.0071,-0.0074,-0.0123,-0.0122,-0.0121,0,0,0,0,0,0,0.0161,0.0161,0.0137,0.0138,0.0132,0.0098,0.0103,0.0096,0.009,0.0034,0.0025,0.0072,-0.0015,-0.0026,-0.0047,-0.0026,-0.0073,-0.0077,-0.0124,-0.0123,-0.0121,-0.0022,0,0,0,0,0,0,0.0162,0.0161,0.0168,0.0139,0.0133,0.0136,0.0103,0.0095,0.0087,0.0084,0.0032,0.0022,-0.0016,-0.0041,-0.0051,-0.0032,-0.0079,-0.0125,-0.0123,-0.0122,-0.0026,-0.0017,-0.0009,0,0,0,0,0,0.0163,0.018,0.0169,0.0167,0.0144,0.0137,0.0131,0.0104,0.0088,0.0095,0.0059,0.0024,-0.0038,-0.0043,-0.0055,-0.0037,-0.0126,-0.0124,-0.0122,-0.003,-0.0019,-0.0009,0,0,0,0,0,0,0.0187,0.0176,0.0164,0.0175,0.0163,0.0131,0.0133,0.0113,0.009,0.0087,0.0032,0.002,0.0007,-0.0028,-0.0033,-0.0046,-0.0086,-0.0087,-0.0012,-0.0003,0.0006,0.003,-0.0083,0,0,0,0,0,0.0196,0.0209,0.0188,0.0199,0.0197,0.0166,0.0159,0.0144,0.0119,0.0109,0.007,0.0033,0.0005,-0.0008,-0.0042,-0.0049,-0.0091,-0.0044,-0.0035,-0.0028,-0.0016,-0.0059,-0.0053,-0.0114,-0.0114,-0.0114,0,0,0.0206,0.0204,0.0209,0.0205,0.0193,0.0205,0.0162,0.0163,0.0175,0.0101,0.0102,0.0056,0.0008,0.0001,-0.0007,-0.0023,-0.0034,-0.0025,-0.0019,-0.001,-0.0056,-0.005,-0.0045,-0.0113,-0.0113,-0.0113,0,0,0.0244,0.0236,0.0262,0.0259,0.0253,0.0237,0.0243,0.0218,0.0211,0.0201,0.0155,0.0127,0.008,0.0057,0.0037,0.0071,0.0007,0.0059,0.0126,0.0084,0.0089,0.0093,0.0044,0.0043,0.0069,0.0069,0.007,0,0.0256,0.0289,0.0267,0.0292,0.03,0.0259,0.0291,0.0278,0.0249,0.0252,0.0216,0.0156,0.0108,0.0111,0.012,0.0091,0.0053,0.0094,0.0096,0.0099,0.0101,0.005,0.0047,0.0074,0.0074,0.0073,0.0073,0,0.0313,0.034,0.0357,0.0379,0.0382,0.0403,0.0387,0.039,0.0366,0.0345,0.0333,0.0265,0.0234,0.0212,0.0173,0.0176,0.0139,0.0107,0.0073,0.0113,0.0057,0.0052,0.0082,0.008,0.0078,0.0077,0,0,0.0344,0.039,0.0397,0.0434,0.0434,0.0452,0.0473,0.0488,0.0519,0.0462,0.0488,0.042,0.0376,0.0352,0.0298,0.026,0.0231,0.0199,0.0194,0.0157,0.0134,0.0104,0.0095,0.0198,0.0198,0.0198,0.0088,0,0.04,0.0477,0.0478,0.0552,0.0593,0.0574,0.0606,0.061,0.0594,0.0605,0.0533,0.0529,0.0434,0.0428,0.0371,0.0276,0.0223,0.0263,0.0096,0.0091,0.0065,0.0091,0.0118,0.0022,0.0083,0.0082,0.0081,0,0.0458,0.0508,0.0592,0.0666,0.0683,0.0718,0.0773,0.0799,0.0794,0.078,0.0745,0.0682,0.0629,0.0539,0.038,0.0411,0.0281,0.0189,0.0182,0.0119,0.0054,-0.0008,0.001,0.0072,0.0073,0.0073,0.0074,0,0.0512,0.0591,0.0669,0.069,0.0755,0.0801,0.0839,0.0856,0.0911,0.0902,0.0928,0.0825,0.0803,0.0628,0.0424,0.0406,0.0237,0.0186,0.0031,0.0026,-0.0,-0.0006,0.0062,0.0062,0.0063,0.0063,0.0063,0,0.0576,0.0643,0.0709,0.0757,0.0873,0.0882,0.0997,0.1017,0.1063,0.115,0.1033,0.1064,0.0825,0.0695,0.0477,0.0247,0.027,0.005,0.0002,0.0034,0.0033,0.0036,0.0035,0.0059,0.006,0.006,0.0061,0,0.0629,0.0666,0.0771,0.0862,0.0907,0.0991,0.1128,0.1206,0.123,0.1341,0.1352,0.1258,0.1093,0.0827,0.0554,0.0344,0.011,0.0013,0.0064,0.0025,-0.0091,-0.0086,-0.0162,-0.0164,-0.0165,-0.0166,-0.0168,0,0.0663,0.0721,0.0857,0.0937,0.0992,0.112,0.1219,0.129,0.1385,0.1467,0.1531,0.1414,0.1343,0.0919,0.0536,0.0154,0.0098,-0.0079,-0.0113,-0.0072,-0.0112,-0.0104,-0.0097,-0.0118,-0.0119,-0.0119,-0.012,0,0.0734,0.0779,0.0871,0.1036,0.1159,0.1307,0.1457,0.1553,0.165,0.174,0.1816,0.1769,0.139,0.1011,0.0492,0.0229,-0.0016,-0.0101,-0.0066,-0.0058,-0.0038,-0.0074,-0.0068,-0.0124,-0.0124,-0.0123,-0.0123,-0.0123,0.0791,0.0867,0.0989,0.1146,0.1292,0.1471,0.1604,0.175,0.1917,0.2053,0.2008,0.1948,0.1534,0.0871,0.0416,-0.0057,-0.003,-0.0207,-0.0203,-0.0199,-0.0166,-0.0149,-0.0251,-0.0251,-0.0251,-0.0251,-0.0252,0,0.086,0.0955,0.1094,0.1286,0.1447,0.1523,0.1749,0.1863,0.2056,0.2175,0.2229,0.1835,0.1409,0.0925,0.0232,-0.0181,-0.0215,-0.0324,-0.027,-0.0262,-0.0256,-0.0225,-0.0326,-0.0328,-0.0329,-0.033,0,0,0.0904,0.1039,0.1106,0.1376,0.1519,0.1738,0.1869,0.2038,0.2159,0.2249,0.2237,0.2152,0.1569,0.1054,0.0486,0.0082,0.0004,-0.0005,0.01,0.024,0.0251,-0.0144,-0.0082,0,0,0,0,0]}],[{"header":{"parameterUnit":"m.s-1","parameterCategory":2,"la1":30.2991,"la2":30.254,"lo1":-89.0895,"lo2":-89.0444,"dy":0.0017,"dx":0.0017,"nx":28,"ny":28,"refTime":"2024-05-24T21:00:00:Z","depth":"4","parameterNumber":2,"parameterNumberName":"U-component_of_CURRENTS"},"data":[0,0,0,0,0,0,0,0,0,0,0,0,0,0,0,0,0,0,0,0,0,0,0,0,0,0,0,0,0,0,0,0,0,0,0,0,0,0,0,0,0,0,0,0,0,0,0,0,0,0,0,0,0,0,0,0,0,0,0.2257,0.2258,0,0.2342,0.2343,0.2343,0.2419,0.242,0.2422,0.2423,0.2533,0.2535,0.2537,0,0,0,0,0,0,0,0,0,0,0,0,0,0.2154,0.2155,0.2257,0.2258,0.226,0.2342,0.2343,0.2344,0.2419,0.242,0.2422,0.2423,0.2532,0.2535,0.2537,0,0,0,0,0,0,0,0,0,0,0,0,0,0.2212,0.2156,0.2257,0.2309,0.2315,0.2342,0.2343,0.2344,0.2419,0.2421,0.2422,0.2424,0.2532,0.2534,0.2537,0.2521,0,0,0.2546,0.2547,0,0,0,0,0,0,0,0,0.2209,0.2216,0.23,0.2306,0.2312,0.2374,0.2347,0.2405,0.2418,0.2377,0.2423,0.2425,0.2483,0.2489,0.2498,0.2526,0.2531,0.2546,0.2548,0.2549,0.255,0,0,0,0,0,0,0,0.2205,0.2212,0.2288,0.2301,0.2309,0.2326,0.2336,0.2358,0.2417,0.238,0.2387,0.24,0.2486,0.2495,0.2501,0.2532,0.2546,0.2548,0.255,0.2551,0.2722,0.2725,0,0,0,0,0,0,0.2198,0.2208,0.2285,0.2291,0.2266,0.2327,0.2338,0.235,0.2417,0.2429,0.2398,0.2403,0.2489,0.2498,0.2505,0.2634,0.2549,0.2552,0.2553,0.2719,0.2723,0.2726,0,0,0,0,0,0,0.2195,0.2204,0.2282,0.2254,0.2265,0.2327,0.234,0.2351,0.2411,0.2431,0.2443,0.2453,0.2491,0.2501,0.2575,0.2634,0.2553,0.2555,0.2716,0.272,0.2724,0.28,0,0,0,0,0,0,0.2192,0.2202,0.2231,0.2253,0.2267,0.2335,0.2339,0.2352,0.2414,0.2423,0.248,0.249,0.2493,0.2571,0.2578,0.2636,0.2558,0.2712,0.2718,0.2723,0.2794,0.2806,0.2817,0,0,0,0,0,0.2188,0.2213,0.2231,0.2242,0.2296,0.2337,0.2347,0.2393,0.2416,0.2451,0.2495,0.2491,0.261,0.2575,0.2583,0.2643,0.271,0.2716,0.2722,0.2789,0.2804,0.2816,0,0,0,0,0,0,0.2185,0.2223,0.2244,0.2282,0.2325,0.2352,0.2394,0.2419,0.2479,0.2503,0.2517,0.253,0.262,0.2621,0.2582,0.2711,0.2663,0.2671,0.2711,0.2725,0.2736,0.2744,0.256,0,0,0,0,0,0.2195,0.2229,0.2264,0.2303,0.2328,0.2369,0.24,0.2433,0.2476,0.2507,0.2547,0.2595,0.2642,0.2676,0.2713,0.2775,0.2784,0.2824,0.2835,0.2845,0.2858,0.2924,0.2943,0.2747,0.2746,0.2746,0,0,0.2205,0.2233,0.2254,0.2307,0.2345,0.2386,0.2394,0.2457,0.2506,0.2507,0.2603,0.2638,0.2668,0.2745,0.2786,0.276,0.2906,0.2853,0.2861,0.2869,0.2933,0.2952,0.2969,0.2751,0.275,0.2749,0,0,0.2227,0.2271,0.2303,0.2342,0.2409,0.2434,0.2463,0.252,0.257,0.2645,0.267,0.2743,0.2807,0.2847,0.287,0.2967,0.2965,0.299,0.3054,0.3119,0.3135,0.315,0.318,0.3197,0.2995,0.2995,0.2995,0,0.2244,0.2281,0.2322,0.2363,0.2403,0.246,0.2504,0.2557,0.2636,0.2686,0.2693,0.2826,0.2853,0.2948,0.299,0.2993,0.302,0.2994,0.3133,0.3147,0.3161,0.3189,0.3206,0.3,0.2999,0.2999,0.2998,0,0.2272,0.2323,0.2351,0.2419,0.2469,0.2523,0.259,0.2664,0.2725,0.2774,0.2898,0.2941,0.3024,0.3048,0.305,0.3171,0.3156,0.3137,0.3091,0.3185,0.3208,0.3225,0.3006,0.3005,0.3003,0.3002,0,0,0.225,0.2349,0.2365,0.2405,0.2506,0.2542,0.2645,0.274,0.2816,0.2909,0.3008,0.3103,0.3149,0.3179,0.3206,0.3263,0.3377,0.3253,0.3254,0.3272,0.3513,0.3292,0.3289,0.339,0.3394,0.3397,0.3488,0,0.2264,0.2337,0.2391,0.2476,0.2517,0.2609,0.2692,0.2795,0.2889,0.3001,0.3087,0.3191,0.3193,0.3252,0.3316,0.3371,0.3427,0.3353,0.3429,0.3431,0.3215,0.3302,0.3408,0.35,0.3503,0.3506,0.3508,0,0.2262,0.2315,0.2392,0.2501,0.2532,0.2602,0.275,0.2836,0.3003,0.3081,0.321,0.3279,0.3415,0.3385,0.3533,0.3494,0.3521,0.354,0.3543,0.3322,0.3241,0.3391,0.3538,0.3535,0.3533,0.3531,0.3529,0,0.2197,0.2311,0.2373,0.2411,0.2544,0.262,0.2713,0.2874,0.2959,0.3159,0.324,0.3395,0.3491,0.3568,0.3631,0.3606,0.3756,0.3716,0.3538,0.3522,0.3658,0.3641,0.381,0.381,0.381,0.381,0.381,0,0.2159,0.2213,0.2358,0.2389,0.2483,0.2601,0.2726,0.2845,0.3017,0.3118,0.329,0.3384,0.3549,0.3646,0.3678,0.3657,0.3802,0.3563,0.3538,0.3686,0.3672,0.3668,0.3651,0.3813,0.3813,0.3812,0.3811,0,0.2063,0.2158,0.2233,0.2392,0.2453,0.2526,0.272,0.2795,0.2988,0.3129,0.3202,0.3419,0.3552,0.366,0.3786,0.369,0.3704,0.3656,0.3812,0.3792,0.3414,0.34,0.3462,0.3455,0.345,0.3445,0.3441,0,0.2012,0.2045,0.2216,0.2264,0.2345,0.2478,0.2559,0.2764,0.2842,0.3119,0.3159,0.3373,0.3492,0.3491,0.3627,0.366,0.3618,0.3584,0.3491,0.3413,0.3384,0.3379,0.3373,0.3432,0.343,0.3429,0.3427,0,0.1913,0.1995,0.2051,0.2153,0.2247,0.2337,0.2479,0.2513,0.2741,0.294,0.305,0.3136,0.3272,0.3367,0.3411,0.343,0.3583,0.3522,0.3533,0.3446,0.3376,0.3352,0.3353,0.3407,0.341,0.3412,0.3413,0,0.1839,0.1853,0.1942,0.2009,0.2112,0.2156,0.2257,0.2353,0.2461,0.2755,0.2795,0.3032,0.3243,0.325,0.3302,0.3296,0.3245,0.312,0.3151,0.3175,0.3038,0.2905,0.2782,0,0,0,0,0,0.1754,0.1748,0.1795,0.1847,0.1933,0.2008,0.2171,0.2275,0.2497,0.2499,0.2637,0.2757,0.286,0.2993,0.2931,0.317,0.3247,0.3081,0.3115,0.3295,0.3319,0.3183,0,0,0,0,0,0,0.1692,0.1726,0.1735,0.1691,0.1701,0.1786,0.1887,0.2045,0.2061,0.2308,0.2386,0.258,0.2727,0.2867,0.2877,0.291,0.2871,0.3231,0.3224,0.3282,0.3303,0.3322,0.3191,0,0,0,0,0]},{"header":{"parameterUnit":"m.s-1","parameterCategory":2,"la1":30.2991,"la2":30.254,"lo1":-89.0895,"lo2":-89.0444,"dy":0.0017,"dx":0.0017,"nx":28,"ny":28,"refTime":"2024-05-24T21:00:00:Z","depth":"4","parameterNumber":3,"parameterNumberName":"V-component_of_CURRENTS"},"data":[0,0,0,0,0,0,0,0,0,0,0,0,0,0,0,0,0,0,0,0,0,0,0,0,0,0,0,0,0,0,0,0,0,0,0,0,0,0,0,0,0,0,0,0,0,0,0,0,0,0,0,0,0,0,0,0,0,0,0.0076,0.0076,0,0.0038,0.0037,0.0037,0.0007,0.0007,0.0007,0.0006,-0.007,-0.0071,-0.0073,0,0,0,0,0,0,0,0,0,0,0,0,0,0.0082,0.0082,0.0076,0.0076,0.0076,0.0038,0.0037,0.0037,0.0007,0.0007,0.0007,0.0006,-0.0069,-0.0071,-0.0073,0,0,0,0,0,0,0,0,0,0,0,0,0,0.0065,0.0082,0.0076,0.0057,0.0054,0.0038,0.0037,0.0036,0.0007,0.0007,0.0006,0.0006,-0.0068,-0.0071,-0.0074,-0.0083,0,0,-0.0082,-0.0083,0,0,0,0,0,0,0,0,0.0066,0.0065,0.006,0.0058,0.0056,0.0027,0.0011,-0.0005,0.0007,0.0025,0.0006,0.0006,-0.004,-0.0045,-0.0052,-0.0087,-0.009,-0.0082,-0.0084,-0.0085,-0.0086,0,0,0,0,0,0,0,0.0067,0.0066,0.0061,0.006,0.0057,0.0035,0.0033,0.0008,-0.0006,0.0023,0.0021,0.0018,-0.0042,-0.0049,-0.0054,-0.0091,-0.0082,-0.0084,-0.0086,-0.0087,-0.0123,-0.0122,0,0,0,0,0,0,0.0076,0.0067,0.0062,0.0059,0.0061,0.0036,0.0033,0.0036,-0.0005,-0.0012,0.0018,0.0016,-0.0044,-0.0051,-0.0057,-0.0046,-0.0085,-0.0087,-0.0089,-0.0123,-0.0123,-0.0122,0,0,0,0,0,0,0.0076,0.0076,0.0063,0.0062,0.0059,0.0036,0.004,0.0036,0.0032,-0.0009,-0.0016,0.0019,-0.0045,-0.0053,-0.0069,-0.005,-0.0089,-0.0091,-0.0124,-0.0123,-0.0122,-0.004,0,0,0,0,0,0,0.0077,0.0076,0.0082,0.0063,0.006,0.0065,0.004,0.0035,0.003,0.0028,-0.001,-0.0018,-0.0046,-0.0065,-0.0072,-0.0054,-0.0093,-0.0125,-0.0124,-0.0123,-0.0044,-0.0036,-0.003,0,0,0,0,0,0.0077,0.009,0.0083,0.0082,0.0069,0.0066,0.0062,0.0043,0.0031,0.0037,0.001,-0.0017,-0.0062,-0.0066,-0.0075,-0.0058,-0.0126,-0.0124,-0.0123,-0.0047,-0.0038,-0.003,0,0,0,0,0,0,0.0094,0.0088,0.008,0.009,0.0082,0.0061,0.0065,0.005,0.0033,0.0031,-0.001,-0.0019,-0.0028,-0.0055,-0.0059,-0.0065,-0.0097,-0.0097,-0.0037,-0.0029,-0.0022,-0.0007,-0.0095,0,0,0,0,0,0.0101,0.0112,0.0099,0.0108,0.0108,0.0087,0.0083,0.0072,0.0055,0.0047,0.0019,-0.0009,-0.0028,-0.0037,-0.0063,-0.0065,-0.0106,-0.0059,-0.0053,-0.0047,-0.004,-0.0086,-0.0082,-0.0117,-0.0117,-0.0117,0,0,0.0109,0.0108,0.0113,0.0112,0.0105,0.0117,0.0084,0.0088,0.0098,0.0041,0.0045,0.001,-0.0026,-0.0028,-0.0033,-0.0046,-0.0059,-0.0045,-0.0039,-0.0036,-0.0084,-0.0081,-0.0078,-0.0116,-0.0116,-0.0116,0,0,0.0137,0.0133,0.0153,0.0154,0.0152,0.0142,0.0146,0.013,0.0127,0.0122,0.0087,0.0065,0.0033,0.0015,0.0001,0.0028,-0.0025,0.0023,0.0074,0.0031,0.0033,0.0034,-0.0013,-0.0017,0.0031,0.0032,0.0032,0,0.0146,0.0171,0.0158,0.0179,0.0187,0.0158,0.0184,0.0177,0.0158,0.0159,0.0134,0.0089,0.0054,0.0055,0.0066,0.0044,0.0008,0.0048,0.004,0.004,0.004,-0.0009,-0.0014,0.0036,0.0035,0.0035,0.0034,0,0.0189,0.021,0.0224,0.0244,0.0251,0.0268,0.0261,0.0264,0.0248,0.0233,0.0224,0.0174,0.0149,0.0136,0.0109,0.0104,0.0074,0.0049,0.0021,0.0049,-0.0005,-0.0012,0.0042,0.004,0.0039,0.0038,0,0,0.0208,0.0248,0.0253,0.0281,0.0289,0.0304,0.0326,0.0338,0.0356,0.0321,0.0333,0.0291,0.0256,0.0237,0.0199,0.0163,0.0129,0.0117,0.0112,0.0073,0.0029,0.0013,0.0003,0.0103,0.0103,0.0102,-0.001,0,0.0247,0.0305,0.0313,0.0371,0.0402,0.0395,0.042,0.0425,0.0414,0.0415,0.0364,0.0355,0.03,0.0291,0.0247,0.016,0.0116,0.0161,0.0004,-0.0,-0.0015,-0.0003,0.01,-0.0015,-0.0017,-0.0018,-0.0019,0,0.0287,0.0324,0.0389,0.0448,0.0461,0.0491,0.0531,0.0553,0.0543,0.0532,0.0506,0.0457,0.0412,0.0354,0.022,0.0252,0.015,0.0073,0.0066,0.0019,-0.0028,-0.0051,-0.0031,-0.003,-0.0029,-0.0028,-0.0028,0,0.0314,0.038,0.0438,0.0456,0.051,0.0546,0.0577,0.0588,0.0623,0.0611,0.0614,0.0543,0.0512,0.0383,0.0223,0.0222,0.0058,0.0032,-0.0082,-0.0085,-0.0074,-0.0075,-0.0073,-0.0072,-0.0072,-0.0072,-0.0072,0,0.0351,0.04,0.0461,0.0495,0.0578,0.0596,0.0674,0.069,0.0714,0.076,0.0683,0.0684,0.0518,0.0404,0.0248,0.0066,0.0072,-0.0072,-0.0112,-0.0038,-0.0033,-0.008,-0.0079,-0.0076,-0.0075,-0.0074,-0.0074,0,0.0371,0.0407,0.0483,0.0559,0.0596,0.0655,0.0756,0.0804,0.0814,0.087,0.0872,0.0791,0.065,0.046,0.0245,0.0109,-0.0072,-0.0144,-0.005,-0.0083,-0.0195,-0.0189,-0.0273,-0.0275,-0.0276,-0.0277,-0.0278,0,0.0386,0.0427,0.0535,0.0593,0.0636,0.0731,0.0801,0.0856,0.0911,0.0936,0.0963,0.0853,0.0772,0.0464,0.0248,-0.0056,-0.0105,-0.0209,-0.0202,-0.0184,-0.0214,-0.0206,-0.0198,-0.028,-0.028,-0.028,-0.0281,0,0.0415,0.0453,0.0518,0.0638,0.073,0.0838,0.0942,0.0987,0.1051,0.1058,0.1049,0.0896,0.0731,0.0485,0.0243,0.0023,-0.0144,-0.0223,-0.0222,-0.0216,-0.0193,-0.022,-0.0211,-0.0285,-0.0284,-0.0284,-0.0284,0,0.044,0.0486,0.0576,0.0686,0.0803,0.0919,0.0968,0.1043,0.1102,0.1125,0.1121,0.0944,0.0851,0.0524,0.0303,0.0084,0.0025,-0.0056,-0.0065,-0.0063,0.0025,0.0087,0.0051,0,0,0,0,0,0.0465,0.0527,0.0621,0.0746,0.0859,0.0939,0.1056,0.1092,0.1148,0.1159,0.1147,0.0999,0.0693,0.0558,0.0339,0.025,-0.0038,-0.002,-0.0142,-0.0308,-0.0303,-0.0238,0,0,0,0,0,0,0.0485,0.0572,0.0622,0.078,0.087,0.101,0.1089,0.1125,0.1129,0.1147,0.0993,0.0932,0.0631,0.0828,0.0335,0.0268,0.0155,-0.0157,-0.0163,-0.0311,-0.0307,-0.0303,-0.0234,0,0,0,0,0]}]]